Location: Carella
(45.8167°N, 9.2667°E)
Time: 08:29:02
(UTC+00:00)

STARLINK-1232 - Pass Details

Date: 30 March 2020
Orbit: 548 x 551 km, 53.0° (Epoch: 25 May)

Event Time Altitude Azimuth Distance (km) Brightness Sun altitude
Rises 18:29:58 0° 264° (W) 2,713 8.7 -7.8°
Reaches altitude 10° 18:32:18 10° 272° (W) 1,821 7.8 -8.2°
Maximum altitude 18:36:13 40° 342° (NNW) 821 4.8 -8.9°
Drops below altitude 10° 18:40:09 10° 53° (NE) 1,826 5.9 -9.5°
Enters shadow 18:41:34 - 59° (ENE) 2,365 6.4 -9.8°
